Location: Amherst
(42.5000°N, 72.5000°W)
Time: 09:33:07
(UTC-04:00)

ISS - Pass Details

Date: 22 May 2018
Orbit: 402 x 407 km, 51.6° (Epoch: 27 May)

Event Time Altitude Azimuth Distance (km) Brightness Sun altitude
Rises 03:17:12 0° 305° (NW) 2,319 0.0 -18.2°
Reaches altitude 10° 03:19:18 10° 308° (NW) 1,457 -1.0 -17.9°
Maximum altitude 03:22:33 68° 32° (NNE) 436 -3.5 -17.6°
Drops below altitude 10° 03:25:47 10° 116° (ESE) 1,450 -0.9 -17.2°
Sets 03:27:52 0° 119° (ESE) 2,307 0.1 -17.0°
